Weather History for Thedford, NE

Change the Weather History Date:

Thursday, July 3, 2014

  Actual Average (KLBF) Record (KLBF)
Temperature  
Mean Temperature 68 °F 73 °F  
Max Temperature 83 °F 87 °F 107 °F (1990)
Min Temperature 53 °F 59 °F 41 °F (1992)
Degree Days  
Heating Degree Days 0 0  
Month to date heating degree days 0  
Since 1 June heating degree days 51  
Since 1 July heating degree days 0  
Cooling Degree Days 2 8  
Month to date cooling degree days 24  
Year to date cooling degree days 190  
Since 1 June cooling degree days 162  
Growing Degree Days 18 (Base 50)    
Moisture  
Dew Point 54 °F    
Average Humidity 59    
Maximum Humidity 85    
Minimum Humidity 34    
Precipitation  
Precipitation 0.00 in 0.09 in 1.27 in (1965)
Month to date precipitation 0.27  
Year to date precipitation 11.13  
Snow  
Snow 0.00 in 0.00 in 0.00 in (2002)
Month to date snowfall 0.0  
Since 1 June snowfall 0.0  
Since 1 July snowfall 0.0  
Snow Depth -    
Sea Level Pressure  
Sea Level Pressure 30.15 in    
Wind  
Wind Speed 10 mph (South)    
Max Wind Speed 23 mph    
Max Gust Speed 29 mph    
Visibility 10 miles    
Events      
T = Trace of Precipitation, MM = Missing Value Source: NWS Daily Summary

Daily Weather History Graph

Daily Weather History Graph

Search for Another Location

Airport:

Trip Planner

Search our weather history database for the weather conditions in past years. The results will help you decide how hot, cold, wet, or windy it might be!

Date:

Astronomy

Jul. 03, 2014 Rise Set
Actual Time 6:11 AM CDT 9:21 PM CDT
Civil Twilight 5:37 AM CDT 9:55 PM CDT
Nautical Twilight 4:53 AM CDT 10:38 PM CDT
Astronomical Twilight 4:01 AM CDT 11:31 PM CDT
Moon 12:18 PM CDT (7/3) 12:09 AM CDT (7/3)
Length of Visible Light 16h 17m
Length of Day
15h 09m
Waxing Crescent, 33% of the Moon is Illuminated
Jul 3
Waxing Crescent
Jul 5
First Quarter
Jul 12
Full
Jul 18
Last Quarter
Jul 26
New

Hourly Weather History & Observations

Time (CDT) Temp. Heat Index Dew Point Humidity Pressure Visibility Wind Dir Wind Speed Gust Speed Precip Events Conditions
12:15 AM 57.4 °F - 49.3 °F 74% 30.20 in 10.0 mi SSE 6.9 mph - N/A   Clear
12:35 AM 56.8 °F - 49.5 °F 76% 30.20 in 10.0 mi SSE 6.9 mph - N/A   Clear
12:55 AM 55.9 °F - 49.1 °F 78% 30.20 in 10.0 mi SE 4.6 mph - N/A   Clear
1:15 AM 53.6 °F - 48.9 °F 84% 30.20 in 10.0 mi ESE 3.5 mph - N/A   Clear
1:35 AM 53.4 °F - 48.9 °F 85% 30.20 in 10.0 mi Calm Calm - N/A   Clear
1:55 AM 54.3 °F - 48.9 °F 82% 30.20 in 10.0 mi SE 4.6 mph - N/A   Clear
2:15 AM 54.1 °F - 49.1 °F 83% 30.20 in 10.0 mi SSE 6.9 mph - N/A   Clear
2:35 AM 56.1 °F - 49.5 °F 78% 30.19 in 10.0 mi South 8.1 mph - N/A   Clear
2:50 AM 56.5 °F - 49.6 °F 78% 30.19 in 10.0 mi South 10.4 mph - N/A   Clear
3:10 AM 57.2 °F - 49.5 °F 75% 30.18 in 10.0 mi South 11.5 mph - N/A   Clear
3:35 AM 57.4 °F - 49.3 °F 74% 30.17 in 10.0 mi South 12.7 mph - N/A   Clear
3:55 AM 57.2 °F - 49.1 °F 74% 30.16 in 10.0 mi South 12.7 mph - N/A   Clear
4:15 AM 57.4 °F - 48.9 °F 73% 30.16 in 10.0 mi South 12.7 mph - N/A   Clear
4:35 AM 57.2 °F - 48.7 °F 73% 30.16 in 10.0 mi South 11.5 mph - N/A   Clear
4:55 AM 56.5 °F - 48.7 °F 75% 30.15 in 10.0 mi South 13.8 mph - N/A   Clear
5:15 AM 56.3 °F - 48.6 °F 75% 30.15 in 10.0 mi South 13.8 mph - N/A   Clear
5:35 AM 56.3 °F - 48.6 °F 75% 30.15 in 10.0 mi South 11.5 mph - N/A   Clear
5:55 AM 56.5 °F - 48.4 °F 74% 30.15 in 10.0 mi SSW 10.4 mph 16.1 mph N/A   Clear
6:15 AM 56.8 °F - 48.4 °F 73% 30.16 in 10.0 mi SSW 9.2 mph - N/A   Clear
6:35 AM 56.3 °F - 48.6 °F 75% 30.16 in 10.0 mi SSW 4.6 mph - N/A   Clear
6:55 AM 56.3 °F - 48.9 °F 76% 30.17 in 10.0 mi South 3.5 mph - N/A   Clear
7:15 AM 57.4 °F - 49.8 °F 76% 30.17 in 10.0 mi South 3.5 mph - N/A   Clear
7:35 AM 59.4 °F - 50.9 °F 74% 30.17 in 10.0 mi SSW 8.1 mph - N/A   Clear
7:55 AM 61.0 °F - 51.8 °F 72% 30.17 in 10.0 mi SSW 8.1 mph - N/A   Clear
8:15 AM 63.1 °F - 52.7 °F 69% 30.17 in 10.0 mi SSW 9.2 mph - N/A   Clear
8:35 AM 64.9 °F - 53.4 °F 66% 30.17 in 10.0 mi SSW 5.8 mph - N/A   Clear
8:55 AM 67.3 °F - 54.5 °F 63% 30.17 in 10.0 mi SSW 6.9 mph - N/A   Clear
9:15 AM 68.7 °F - 54.9 °F 61% 30.17 in 10.0 mi SW 8.1 mph - N/A   Clear
9:35 AM 70.2 °F - 55.4 °F 59% 30.17 in 10.0 mi SSW 12.7 mph 16.1 mph N/A   Clear
9:55 AM 72.0 °F - 55.8 °F 57% 30.17 in 10.0 mi SSW 11.5 mph - N/A   Clear
10:15 AM 73.8 °F - 55.6 °F 53% 30.17 in 10.0 mi SSW 17.3 mph - N/A   Clear
10:35 AM 74.8 °F - 55.9 °F 52% 30.17 in 10.0 mi SSW 16.1 mph 24.2 mph N/A   Clear
10:55 AM 75.7 °F - 56.1 °F 50% 30.16 in 10.0 mi SSW 16.1 mph - N/A   Clear
11:15 AM 76.8 °F - 56.7 °F 50% 30.16 in 10.0 mi SSW 13.8 mph 19.6 mph N/A   Clear
11:35 AM 77.9 °F - 55.6 °F 46% 30.15 in 10.0 mi SSW 15.0 mph 21.9 mph N/A   Clear
11:55 AM 78.6 °F - 55.6 °F 45% 30.15 in 10.0 mi SSW 15.0 mph 20.7 mph N/A   Clear
12:15 PM 78.8 °F - 55.4 °F 44% 30.15 in 10.0 mi SSW 13.8 mph 19.6 mph N/A   Clear
12:35 PM 79.5 °F - 54.9 °F 42% 30.15 in 10.0 mi South 15.0 mph 18.4 mph N/A   Clear
12:55 PM 80.8 °F 80.5 °F 54.5 °F 40% 30.15 in 10.0 mi South 13.8 mph 19.6 mph N/A   Clear
1:15 PM 81.5 °F - 52.2 °F 36% 30.14 in 10.0 mi SSE 13.8 mph 18.4 mph N/A   Scattered Clouds
1:35 PM 79.9 °F - 51.6 °F 37% 30.14 in 10.0 mi South 13.8 mph 18.4 mph N/A   Scattered Clouds
1:55 PM 82.2 °F - 51.3 °F 34% 30.14 in 10.0 mi SSW 13.8 mph 18.4 mph N/A   Scattered Clouds
2:15 PM 82.9 °F - 51.8 °F 34% 30.14 in 10.0 mi South 9.2 mph 20.7 mph N/A   Scattered Clouds
2:35 PM 81.3 °F - 51.6 °F 36% 30.13 in 10.0 mi South 9.2 mph 18.4 mph N/A   Scattered Clouds
2:55 PM 82.6 °F - 52.0 °F 35% 30.13 in 10.0 mi SE 16.1 mph 24.2 mph N/A   Scattered Clouds
3:15 PM 82.8 °F - 52.0 °F 34% 30.13 in 10.0 mi South 15.0 mph 19.6 mph N/A   Scattered Clouds
3:35 PM 82.2 °F - 52.3 °F 35% 30.13 in 10.0 mi South 15.0 mph 20.7 mph N/A   Mostly Cloudy
3:55 PM 80.8 °F - 52.2 °F 37% 30.13 in 10.0 mi South 18.4 mph 26.5 mph N/A   Mostly Cloudy
4:15 PM 82.0 °F 81.2 °F 53.6 °F 37% 30.13 in 10.0 mi SSE 19.6 mph - N/A   Mostly Cloudy
4:35 PM 81.5 °F 81.0 °F 54.9 °F 40% 30.13 in 10.0 mi South 16.1 mph 20.7 mph N/A   Scattered Clouds
4:55 PM 80.2 °F 80.4 °F 56.1 °F 43% 30.13 in 10.0 mi South 12.7 mph 23.0 mph N/A   Mostly Cloudy
5:15 PM 79.7 °F - 57.2 °F 46% 30.13 in 10.0 mi SSE 16.1 mph - N/A   Mostly Cloudy
5:35 PM 80.1 °F 80.6 °F 58.1 °F 47% 30.12 in 10.0 mi SSE 15.0 mph 23.0 mph N/A   Scattered Clouds
5:55 PM 79.9 °F - 58.5 °F 48% 30.12 in 10.0 mi SSE 15.0 mph - N/A   Mostly Cloudy
6:15 PM 80.6 °F 80.9 °F 58.1 °F 46% 30.11 in 10.0 mi SSE 23.0 mph 26.5 mph N/A   Scattered Clouds
6:35 PM 80.6 °F 80.9 °F 58.1 °F 46% 30.10 in 10.0 mi SSE 18.4 mph 28.8 mph N/A   Scattered Clouds
6:55 PM 79.2 °F - 58.1 °F 48% 30.10 in 10.0 mi South 17.3 mph 25.3 mph N/A   Scattered Clouds
7:15 PM 78.8 °F - 58.1 °F 49% 30.10 in 10.0 mi SSE 19.6 mph 26.5 mph N/A   Scattered Clouds
7:35 PM 78.6 °F - 58.1 °F 49% 30.10 in 10.0 mi South 20.7 mph 25.3 mph N/A   Scattered Clouds
7:55 PM 77.7 °F - 57.7 °F 50% 30.10 in 10.0 mi SSE 13.8 mph 24.2 mph N/A   Clear
8:15 PM 76.8 °F - 57.6 °F 51% 30.11 in 10.0 mi SSE 16.1 mph 23.0 mph N/A   Clear
8:35 PM 75.9 °F - 57.7 °F 53% 30.11 in 10.0 mi SSE 13.8 mph 20.7 mph N/A   Clear
8:55 PM 74.7 °F - 57.4 °F 55% 30.11 in 10.0 mi SSE 15.0 mph 20.7 mph N/A   Clear
9:15 PM 73.4 °F - 57.6 °F 58% 30.11 in 10.0 mi SSE 12.7 mph - N/A   Clear
9:35 PM 72.1 °F - 57.7 °F 60% 30.12 in 10.0 mi SSE 12.7 mph - N/A   Clear
9:55 PM 70.9 °F - 58.1 °F 64% 30.12 in 10.0 mi SSE 10.4 mph - N/A   Clear
10:15 PM 70.0 °F - 58.1 °F 66% 30.14 in 10.0 mi SSE 10.4 mph - N/A   Clear
10:35 PM 69.3 °F - 58.1 °F 68% 30.14 in 10.0 mi SSE 10.4 mph - N/A   Clear
10:55 PM 68.4 °F - 58.1 °F 70% 30.14 in 10.0 mi SSE 11.5 mph - N/A   Clear
11:15 PM 67.6 °F - 58.1 °F 71% 30.14 in 10.0 mi SSE 10.4 mph - N/A   Clear
11:35 PM 67.3 °F - 58.3 °F 73% 30.14 in 10.0 mi SSE 10.4 mph - N/A   Clear
11:55 PM 66.7 °F - 58.5 °F 75% 30.15 in 10.0 mi SSE 11.5 mph - N/A   Clear